When you browse on this site, cookies collect data to enhance your experience and personalize the content and advertising you see.
Visit our Privacy Policy to learn more. By continuing to use the site, you agree to this use of cookies and data.
  • In Hungary
  • List of Countries
  • For 7 days
  • Water Temperature
  • Satellite Maps
  • Weather Map
  • News
  • Weather Widgets
  • user-avatar
    Login

    Hourly Weather Kroczyce

    Today, 18 April, Thursday

    Time Temperature Precipitation Wind Pressure Humidity
    00:00 +8°C° 0 mm 2 mps 739 mmHg 66%
    01:00 +7°C° 0 mm 3 mps 739 mmHg 66%
    02:00 +7°C° 0 mm 2 mps 739 mmHg 69%
    03:00 +7°C° 0 mm 2 mps 740 mmHg 72%
    04:00 +6°C° 0 mm 2 mps 740 mmHg 74%
    05:00 +7°C° 0 mm 2 mps 740 mmHg 72%
    06:00 +8°C° 0 mm 2 mps 740 mmHg 69%
    07:00 +10°C° 0 mm 2 mps 741 mmHg 66%
    08:00 +11°C° 0 mm 3 mps 741 mmHg 60%
    09:00 +13°C° 0 mm 4 mps 741 mmHg 54%
    10:00 +15°C° 0 mm 4 mps 741 mmHg 47%
    11:00 +15°C° 0 mm 4 mps 741 mmHg 45%
    12:00 +17°C° 0 mm 4 mps 741 mmHg 44%
    13:00 +18°C° 0 mm 4 mps 741 mmHg 42%
    14:00 +18°C° 0 mm 4 mps 741 mmHg 41%
    15:00 +18°C° 0 mm 4 mps 741 mmHg 41%
    16:00 +18°C° 0 mm 3 mps 741 mmHg 40%
    17:00 +16°C° 0 mm 3 mps 741 mmHg 45%
    18:00 +15°C° 0 mm 2 mps 741 mmHg 50%
    19:00 +13°C° 0 mm 2 mps 741 mmHg 54%
    20:00 +12°C° 0 mm 2 mps 741 mmHg 56%
    21:00 +12°C° 0 mm 2 mps 741 mmHg 58%
    22:00 +10°C° 0 mm 2 mps 742 mmHg 60%
    23:00 +10°C° 0 mm 1 mps 742 mmHg 61%

    Tomorrow, 19 April, Friday

    Time Temperature Precipitation Wind Pressure Humidity
    00:00 +10°C° 0 mm 1 mps 742 mmHg 62%
    01:00 +10°C° 0 mm 1 mps 742 mmHg 63%
    02:00 +9°C° 0 mm 1 mps 742 mmHg 65%
    03:00 +8°C° 0 mm 2 mps 742 mmHg 67%
    04:00 +7°C° 0 mm 2 mps 742 mmHg 70%
    05:00 +8°C° 0 mm 2 mps 742 mmHg 67%
    06:00 +9°C° 0 mm 2 mps 742 mmHg 65%
    07:00 +10°C° 0 mm 3 mps 743 mmHg 63%
    08:00 +12°C° 0 mm 3 mps 743 mmHg 56%
    09:00 +14°C° 0 mm 4 mps 743 mmHg 49%
    10:00 +15°C° 0 mm 4 mps 743 mmHg 41%
    11:00 +17°C° 0 mm 4 mps 743 mmHg 39%
    12:00 +18°C° 0 mm 4 mps 743 mmHg 36%
    13:00 +19°C° 0 mm 4 mps 742 mmHg 34%
    14:00 +18°C° 0 mm 4 mps 742 mmHg 35%
    15:00 +18°C° 0 mm 4 mps 742 mmHg 36%
    16:00 +18°C° 0 mm 4 mps 742 mmHg 37%
    17:00 +15°C° 0 mm 4 mps 742 mmHg 42%
    18:00 +14°C° 0 mm 3 mps 742 mmHg 48%
    19:00 +13°C° 0 mm 2 mps 742 mmHg 53%
    20:00 +12°C° 0 mm 2 mps 742 mmHg 55%
    21:00 +10°C° 0 mm 2 mps 742 mmHg 57%
    22:00 +10°C° 0 mm 1 mps 742 mmHg 59%
    23:00 +10°C° 0 mm 1 mps 742 mmHg 60%

    Day after tomorrow, 20 April, Saturday

    Time Temperature Precipitation Wind Pressure Humidity
    00:00 +9°C° 0 mm 1 mps 742 mmHg 62%
    01:00 +8°C° 0 mm 0 mps 742 mmHg 64%
    02:00 +7°C° 0 mm 0 mps 742 mmHg 64%
    03:00 +8°C° 0 mm 1 mps 742 mmHg 65%
    04:00 +8°C° 0 mm 1 mps 742 mmHg 66%
    05:00 +9°C° 0 mm 1 mps 742 mmHg 63%
    06:00 +11°C° 0 mm 1 mps 742 mmHg 60%
    07:00 +12°C° 0 mm 1 mps 742 mmHg 56%
    08:00 +13°C° 0 mm 2 mps 742 mmHg 52%
    09:00 +15°C° 0 mm 2 mps 741 mmHg 48%
    10:00 +16°C° 0 mm 3 mps 741 mmHg 43%
    11:00 +17°C° 0 mm 3 mps 741 mmHg 41%
    12:00 +17°C° 0 mm 3 mps 741 mmHg 38%
    13:00 +18°C° 0 mm 4 mps 740 mmHg 35%
    14:00 +18°C° 0 mm 4 mps 740 mmHg 36%
    15:00 +17°C° 0 mm 4 mps 740 mmHg 37%
    16:00 +16°C° 0 mm 5 mps 739 mmHg 38%
    17:00 +14°C° 0 mm 4 mps 739 mmHg 42%
    18:00 +13°C° 0 mm 3 mps 739 mmHg 47%
    19:00 +11°C° 0 mm 3 mps 739 mmHg 51%
    20:00 +11°C° 0 mm 3 mps 739 mmHg 55%
    21:00 +10°C° 0 mm 2 mps 739 mmHg 58%
    22:00 +9°C° 0 mm 2 mps 739 mmHg 62%
    23:00 +8°C° 0 mm 2 mps 738 mmHg 65%

    21 April, Sunday

    Time Temperature Precipitation Wind Pressure Humidity
    00:00 +8°C° 0 mm 2 mps 738 mmHg 68%
    01:00 +8°C° 0 mm 1 mps 738 mmHg 71%
    02:00 +8°C° 0 mm 1 mps 738 mmHg 74%
    03:00 +7°C° 0 mm 1 mps 738 mmHg 76%
    04:00 +7°C° 0 mm 1 mps 738 mmHg 79%
    05:00 +7°C° 0 mm 2 mps 738 mmHg 75%
    06:00 +8°C° 0 mm 2 mps 738 mmHg 72%
    07:00 +9°C° 0 mm 2 mps 738 mmHg 68%
    08:00 +12°C° 0 mm 2 mps 738 mmHg 62%
    09:00 +12°C° 0 mm 3 mps 737 mmHg 56%
    10:00 +14°C° 0 mm 3 mps 737 mmHg 49%
    11:00 +14°C° 0 mm 3 mps 737 mmHg 47%
    12:00 +16°C° 0 mm 3 mps 737 mmHg 44%
    13:00 +17°C° 0 mm 3 mps 736 mmHg 41%
    14:00 +17°C° 0 mm 4 mps 736 mmHg 41%
    15:00 +17°C° 0 mm 4 mps 736 mmHg 40%
    16:00 +15°C° 0 mm 4 mps 735 mmHg 39%
    17:00 +14°C° 0 mm 4 mps 735 mmHg 44%
    18:00 +12°C° 0 mm 3 mps 735 mmHg 48%
    19:00 +12°C° 0 mm 2 mps 735 mmHg 53%
    20:00 +10°C° 0 mm 2 mps 735 mmHg 55%
    21:00 +10°C° 0 mm 1 mps 735 mmHg 56%
    22:00 +9°C° 0 mm 0 mps 735 mmHg 58%
    23:00 +8°C° 0 mm 0 mps 735 mmHg 59%

    22 April, Monday

    Time Temperature Precipitation Wind Pressure Humidity
    00:00 +8°C° 0 mm 0 mps 735 mmHg 60%
    01:00 +8°C° 0 mm 0 mps 735 mmHg 61%
    02:00 +7°C° 0 mm 0 mps 734 mmHg 62%
    03:00 +7°C° 0 mm 0 mps 734 mmHg 63%
    04:00 +7°C° 0 mm 0 mps 734 mmHg 64%
    05:00 +8°C° 0 mm 0 mps 734 mmHg 61%
    06:00 +9°C° 0 mm 0 mps 734 mmHg 57%
    07:00 +12°C° 0 mm 1 mps 734 mmHg 54%
    08:00 +13°C° 0 mm 1 mps 734 mmHg 52%
    09:00 +14°C° 0 mm 2 mps 734 mmHg 49%
    10:00 +15°C° 0 mm 2 mps 734 mmHg 46%
    11:00 +14°C° 0.7 mm 3 mps 734 mmHg 50%
    12:00 +14°C° 0.7 mm 3 mps 734 mmHg 53%
    13:00 +14°C° 0.7 mm 4 mps 733 mmHg 57%
    14:00 +14°C° 0.2 mm 4 mps 733 mmHg 57%
    15:00 +14°C° 0.2 mm 3 mps 733 mmHg 57%
    16:00 +13°C° 0.2 mm 3 mps 733 mmHg 58%
    17:00 +12°C° 0 mm 3 mps 733 mmHg 62%
    18:00 +11°C° 0 mm 3 mps 733 mmHg 66%
    19:00 +10°C° 0 mm 3 mps 733 mmHg 70%
    20:00 +10°C° 0 mm 4 mps 733 mmHg 74%
    21:00 +8°C° 0 mm 4 mps 733 mmHg 78%
    22:00 +7°C° 0 mm 5 mps 733 mmHg 82%
    23:00 +7°C° 0 mm 5 mps 733 mmHg 83%

    23 April, Tuesday

    Time Temperature Precipitation Wind Pressure Humidity
    00:00 +7°C° 0 mm 5 mps 733 mmHg 83%
    01:00 +7°C° 0 mm 5 mps 733 mmHg 84%
    02:00 +7°C° 0 mm 5 mps 733 mmHg 85%
    03:00 +6°C° 0 mm 5 mps 733 mmHg 86%
    04:00 +6°C° 0 mm 5 mps 733 mmHg 87%
    05:00 +6°C° 0.5 mm 5 mps 733 mmHg 87%
    06:00 +7°C° 0.5 mm 6 mps 733 mmHg 88%
    07:00 +7°C° 0.5 mm 6 mps 733 mmHg 89%
    08:00 +9°C° 0.1 mm 7 mps 733 mmHg 82%
    09:00 +11°C° 0.1 mm 7 mps 733 mmHg 74%
    10:00 +14°C° 0.1 mm 7 mps 733 mmHg 67%
    11:00 +15°C° 0.1 mm 8 mps 733 mmHg 61%
    12:00 +16°C° 0.1 mm 8 mps 732 mmHg 55%
    13:00 +17°C° 0.1 mm 8 mps 732 mmHg 50%
    14:00 +17°C° 0 mm 8 mps 732 mmHg 48%
    15:00 +17°C° 0 mm 8 mps 732 mmHg 46%
    16:00 +18°C° 0 mm 8 mps 731 mmHg 44%
    17:00 +16°C° 0 mm 8 mps 731 mmHg 48%
    18:00 +15°C° 0 mm 7 mps 731 mmHg 51%
    19:00 +12°C° 0 mm 7 mps 731 mmHg 55%
    20:00 +13°C° 0 mm 6 mps 731 mmHg 55%
    21:00 +13°C° 0 mm 6 mps 731 mmHg 55%
    22:00 +11°C° 0 mm 6 mps 731 mmHg 55%
    23:00 +11°C° 0 mm 6 mps 731 mmHg 59%
    Show more